Regional Weather Roundup
Issued by NWS

Home | Current Version | Previous Version | Text Only | Print | Product List | Glossary On
Versions: 1 2 3 4 5 6 7 8 9 10 11 12 13 14 15 16 17 18 19 20 21 22 23 24 25 26 27
000
ASUS45 KTFX 180210
RWRMT
MONTANA REGIONAL WEATHER ROUNDUP
NATIONAL WEATHER SERVICE GREAT FALLS MT
700 PM MST TUE JAN 17 2017

NOTE: "FAIR" INDICATES FEW OR NO CLOUDS BELOW 12000 FEET WITH NO
SIGNIFICANT WEATHER AND/OR OBSTRUCTIONS TO VISIBILITY.

MTZ001>007-043-180300-
WEST OF THE DIVIDE

CITY           SKY/WX    TMP DP  RH WIND       PRES   REMARKS
KALISPELL      CLOUDY    21  18  88 CALM      29.91F
MISSOULA       MOCLDY    11   7  84 CALM      29.97F
BUTTE          CLOUDY    16   7  67 E5        29.94F
MULLAN PASS    CLOUDY    28  19  69 S8        29.81F WCI  20
ANACONDA         N/A     34  18  51 S3        29.92S
DEER LODGE       N/A     21  10  63 W3        29.92F
EUREKA           N/A     28  21  74 CALM      29.89F
HAMILTON         N/A     16   7  67 S3        29.94F
PLAINS           N/A     15   6  67 CALM      29.95F
RONAN            N/A     10   5  80 MISG      29.95S
$$

MTZ008-052>055-180300-
SOUTHWEST MONTANA

CITY           SKY/WX    TMP DP  RH WIND       PRES   REMARKS
BOZEMAN        CLOUDY    17  10  74 S3        29.98R
DILLON         CLOUDY    26  11  52 S14       30.00S WCI  14
W YELLOWSTONE  CLOUDY     3   0  85 CALM      30.13R
ENNIS          CLEAR     28  16  59 S17G25    30.06R WCI  16
TWIN BRIDGES     N/A     14   4  64 S7        30.01S WCI   4
$$

MTZ009-010-012-014-046-048-049-054-180300-
EAST SLOPES AND CENTRAL MONTANA

CITY           SKY/WX    TMP DP  RH WIND       PRES   REMARKS
CUT BANK       PTCLDY    41  29  62 W17       29.68F
GREAT FALLS    CLOUDY    39  22  50 SW26      29.75F WCI  28
MALMSTROM AFB  CLOUDY    39  28  63 SW23      29.76F WCI  29
HELENA         CLOUDY    14   6  70 N3        29.95F
AUGUSTA          N/A     35  26  70 E3        29.76F
BOWMANS CRNR     N/A     31  19  61 S30       29.76F WCI  16
CHOTEAU          N/A     43  28  56 S9        29.75S
CONRAD           N/A     39  32  76 E3        29.78S
FAIRFIELD        N/A     36  23  60 S18G31    29.74F WCI  25
POWER            N/A     38  26  61 SW18      29.74F WCI  29
RAYNESFORD       N/A     43  29  57 SW5       29.79S
ULM              N/A     39  22  50 MISG      29.80F
$$

MTZ011-013-016-021-045-047-050-051-180300-
NORTH CENTRAL MONTANA

CITY           SKY/WX    TMP DP  RH WIND       PRES   REMARKS
HAVRE          CLEAR     38  30  73 SW24      29.66F WCI  27
LEWISTOWN      CLEAR     42  30  62 SW15      29.80R
N BAR RANCH      N/A     39  30  70 NW5       29.79F
CHINOOK          N/A     45  28  53 W13       29.67F
DENTON           N/A     48  31  50 W18       29.74S
FORT BENTON      N/A     46  25  42 MISG      29.75F
GEYSER           N/A     40  30  67 W14       29.78R
GRASS RANGE      N/A     46  31  56 W23       29.72S
JUDITH GAP       N/A     42  27  55 SW21G26   29.81S
ROY              N/A     45  33  63 MISG      29.70F
STANFORD         N/A     44  31  61 S3        29.79R
WINIFRED         N/A     45  31  59 SW12      29.77R
$$

MTZ017>020-022>027-061-062-180300-
NORTHEAST MONTANA

CITY           SKY/WX    TMP DP  RH WIND       PRES   REMARKS
GLASGOW        CLOUDY    28  20  71 E6        29.69F WCI  22
JORDAN           N/A     36  29  75 W8        29.75R WCI  30
SIDNEY         CLOUDY    28  22  78 S15       29.74F WCI  16
WOLF POINT     CLOUDY    24  19  81 W7        29.71S WCI  16
PLENTYWOOD       N/A     41  28  60 W14       29.65F
POPLAR           N/A     28  21  74 N3        29.73R
SCOBEY           N/A     33  20  59 S1        29.68F
$$

MTZ028>42-056>058-180300-
SOUTHCENTRAL AND SOUTHEAST MONTANA

CITY           SKY/WX    TMP DP  RH WIND       PRES   REMARKS
BAKER          CLOUDY    35  20  54 W15       29.81S WCI  25
BILLINGS       CLOUDY    33  13  43 SW21      29.87S WCI  21
LIVINGSTON     CLOUDY    43  19  38 SW21G29   29.89F
MILES CITY     CLOUDY    29  17  61 SE12      29.81F WCI  19
BIG TIMBER     CLEAR     41  19  42 W25       29.88F
EKALAKA          N/A     39  16  39 SW13      29.83S WCI  31
FORSYTH          N/A     41  21  45 SW6       29.81S
HARLOWTON        N/A     40  21  45 W14       29.83S
LAUREL           N/A     30  13  49 SW13      29.87  WCI  20
$$

REGIONAL REPORTS...DAKOTAS

CITY           SKY/WX    TMP DP  RH WIND       PRES   REMARKS
WILLISTON      CLOUDY    27  20  75 SE6       29.72R WCI  20
MINOT          CLOUDY    36  24  62 SW16      29.64R WCI  26
DICKINSON      CLOUDY    29  20  69 SW14      29.75R WCI  18
BEACH            N/A     36  19  51 SW20G28   29.79S WCI  25
CROSBY           N/A     32  27  80 SW15      29.66S WCI  22
TIOGA            N/A     32  27  80 W26       29.68S WCI  18
WATFORD CITY     N/A     32  23  69 SW14      29.72R WCI  22
BISMARCK       CLOUDY    31  18  58 SW9       29.76F WCI  23
GRAND FORKS    CLOUDY    23  17  78 S20       29.72R WCI   8
FARGO          CLOUDY    21  17  84 S16       29.81F WCI   7
BUFFALO SD       N/A     35  21  56 W7        29.77F WCI  29
RAPID CITY     CLOUDY    28  13  53 CALM      29.89S
$$

REGIONAL REPORTS...WYOMING/IDAHO/WASHINGTON

CITY           SKY/WX    TMP DP  RH WIND       PRES   REMARKS
GILLETTE       CLOUDY    37  21  52 SW21      29.90S WCI  26
SHERIDAN       CLOUDY    21  13  71 S5        29.88F
BUFFALO WY     CLOUDY    43  21  41 SW5       29.92R
YELLOWSTONE LA   N/A      4   2  91 CALM      30.11S
IDAHO FALLS    CLOUDY     5   1  83 N7        30.22R WCI  -7
SALMON         CLOUDY    -6  -8  92 CALM      30.23F
BOISE          PTCLDY    10   4  76 W8        30.22R HAZE    WCI  -2
SPOKANE        CLOUDY    25  21  85 N3        29.85F
$$

REGIONAL REPORTS...ALBERTA

CITY           SKY/WX    TMP DP  RH WIND       PRES   REMARKS
EDMONTON       PTCLDY    37  27  65 SE2       29.27F
CALGARY        PTCLDY    37  30  75 NE6       29.43F
LETHBRIDGE     MOCLDY    37  32  81 W13       29.60F WCI  29
MEDICINE HAT   PTCLDY    41  32  70 S16G32    29.54R
WATERTON GATE    N/A     43  30  61 SW20G30     N/A
CARDSTON         N/A     46  32  57 W12G20      N/A
MILK RIVER       N/A     37  30  75 S6          N/A
$$

REGIONAL REPORTS...SASKATCHEWAN

CITY           SKY/WX    TMP DP  RH WIND       PRES   REMARKS
SWIFT CURRENT  CLEAR     43  32  65 W17G29    29.53S
REGINA         PTCLDY    34  30  86 W14       29.55S WCI  24
SASKATOON      MOCLDY    36  32  87 SW14      29.46F WCI  27
CYPRESS HILLS    N/A     39  27  60 SW10G17     N/A
VAL MARIE        N/A     39  28  65 W14         N/A  WCI  31
ROCKGLEN         N/A     34  27  75 W20         N/A  WCI  22
ASSINIBOIA       N/A     36  32  87 S8          N/A  WCI  29
$$




USA.gov is the U.S. government's official web portal to all federal, state and local government web resources and services.